This is the latest recevied weather packets stored in our database for station/object CA3SQH-10. If no packets are shown the sender has not sent any weather packets the latest 10 day(s).
| Time | Temp. | Humidity | Pressure | Rain* | Wind** | Luminosity | Snow |
|---|---|---|---|---|---|---|---|
| 1788139012 | 56° F | 99% | 706 mmHg | - | - | - | - |
| 1788138111 | 56° F | 99% | 705.5 mmHg | - | - | - | - |
| 1788137211 | 56° F | 99% | 705.4 mmHg | - | - | - | - |
| 1788136315 | 57° F | 95% | 705.4 mmHg | - | - | - | - |
| 1788135415 | 58° F | 89% | 705.7 mmHg | - | - | - | - |
| 1788134515 | 61° F | 74% | 705 mmHg | - | - | - | - |
| 1788133615 | 62° F | 73% | 704.7 mmHg | - | - | - | - |
| 1788132714 | 62° F | 71% | 704.7 mmHg | - | - | - | - |
| 1788131814 | 63° F | 69% | 704.5 mmHg | - | - | - | - |
| 1788130914 | 63° F | 68% | 704.4 mmHg | - | - | - | - |
| 1788130014 | 63° F | 67% | 704.1 mmHg | - | - | - | - |
| 1788129114 | 63° F | 67% | 703.9 mmHg | - | - | - | - |
| 1788128213 | 63° F | 67% | 703.9 mmHg | - | - | - | - |
| 1788127313 | 64° F | 66% | 703.8 mmHg | - | - | - | - |
| 1788126413 | 64° F | 65% | 703.7 mmHg | - | - | - | - |
| 1788125513 | 65° F | 64% | 703.7 mmHg | - | - | - | - |
| 1788124612 | 66° F | 64% | 703.8 mmHg | - | - | - | - |
| 1788123712 | 66° F | 63% | 703.7 mmHg | - | - | - | - |
| 1788122812 | 67° F | 61% | 703.7 mmHg | - | - | - | - |
| 1788121912 | 68° F | 59% | 703.8 mmHg | - | - | - | - |
| 1788121012 | 69° F | 58% | 703.6 mmHg | - | - | - | - |
| 1788120111 | 69° F | 58% | 703.7 mmHg | - | - | - | - |
| 1788119211 | 69° F | 58% | 703.6 mmHg | - | - | - | - |
| 1788118311 | 71° F | 56% | 703.6 mmHg | - | - | - | - |
| 1788117410 | 71° F | 54% | 703.6 mmHg | - | - | - | - |
* Rain since midnight (hover to see other rain measurements)
** Current wind speed in m/s (hover to see current wind gust speed)